Location: Starlight Observatory
(38.4029°N, 85.8936°W)
Time: 01:39:31
(UTC-04:00)

Iridium 84 - Visible Passes

Search period start: 26 May 2015 00:00
Search period end: 05 June 2015 00:00
Orbit: 776 x 779 km, 86.4° (Epoch: 25 May)

Date Brightness Start Highest point End Pass type
(mag) Time Alt. Az. Time Alt. Az. Time Alt. Az.
26 May 8.6 04:23:55 10° E 04:24:27 10° ENE 04:25:21 10° ENE visible
27 May 6.3 05:26:01 10° SSE 05:31:05 54° E 05:36:10 10° NNE visible
28 May 7.4 04:53:18 10° SE 04:57:41 29° E 05:02:09 10° NNE visible
29 May 8.2 04:21:29 10° ESE 04:24:22 16° E 04:27:30 10° NE visible
30 May 5.7 05:25:56 10° S 05:31:08 80° E 05:36:22 10° N visible
31 May 6.7 04:52:50 10° SSE 04:57:41 42° E 05:02:36 10° NNE visible
01 Jun 7.7 04:20:25 10° SE 04:24:19 23° E 04:28:24 10° NNE visible
02 Jun 8.3 03:49:18 10° E 03:51:03 12° E 03:53:07 10° NE visible
02 Jun 5.5 05:26:03 10° S 05:31:14 70° W 05:36:26 10° N visible
03 Jun 6.0 04:52:36 10° SSE 04:57:43 62° E 05:02:53 10° N visible
04 Jun 7.1 04:19:44 10° SSE 04:24:18 33° E 04:28:58 10° NNE visible
